Flag for Germany Weather past 2 weeks in Detmold, North Rhine-Westphalia, Germany

Now
67 °F

Fog.


Feels Like: 67 °F
Forecast: 55 / 69 °F
Wind: 1 mph from North

Location: Bad Lippspringe

Current Time: Aug 31, 2015 at 3:35:08 AM

Latest Report: Aug 31, 2015 at 3:00 AM


Visibility: 4 mi

Pressure: 29.97 "Hg

Humidity: 98%

Dew point: 67 °F

Location of DetmoldLocation

Historic Weather in Detmold — Graph

°F

Detmold temperature yesterday

Maximum temperature yesterday: 88 °F (at 4:00 PM)
Minimum temperature yesterday: 66 °F (at 4:00 AM)
Average temperature yesterday: 76 °F

Past Weeks' High & Low Weather Summary

 TemperatureHumidityPressure
High88 °F (Aug 30, 4:00 PM)100% (Aug 16, 10:00 PM)30.27 "Hg (Aug 16, 10:00 PM)
Low49 °F (Aug 29, 6:00 AM)34% (Aug 22, 3:00 PM)29.59 "Hg (Aug 24, 6:00 PM)
Average65 °F75%29.99 "Hg
* Reported Aug 16 2:00 AM — Aug 31 2:00 AM, Detmold, Weather by CustomWeather, © 2015

Note: Actual official high and low records may vary slightly from our data, if they occured in-between our weather recording intervals... More about our weather records

Advertising

Detmold weather history for previous 24 hours

 ConditionsComfort  
Time TempWeatherWind HumidityBarometerVisibility
2:00 AM
Mon, Aug 31
68 °FPassing clouds.1 mph97%29.98 "Hg5 mi
1:00 AM68 °FOvercast.1 mph96%29.99 "Hg6 mi
11:00 PM
Sun, Aug 30
69 °FClear.1 mph97%29.98 "Hg6 mi
10:00 PM71 °FPassing clouds.1 mph95%29.99 "Hg9 mi
9:00 PM74 °FPassing clouds.1 mph88%29.98 "Hg12 mi
8:00 PM77 °FScattered clouds.2 mph84%29.97 "Hg16 mi
7:00 PM85 °FSunny.1 mph58%29.96 "Hg22 mi
6:00 PM87 °FSunny.3 mph52%29.95 "Hg19 mi
5:00 PM88 °FSunny.2 mph49%29.95 "Hg19 mi
4:00 PM88 °FScattered clouds.2 mph55%29.96 "Hg22 mi
3:00 PM87 °FSunny.3 mph58%29.98 "Hg15 mi
2:00 PM85 °FSunny.3 mph57%30.00 "Hg17 mi
1:00 PM82 °FSunny.3 mph61%30.01 "Hg19 mi
12:00 PM80 °FPassing clouds.2 mph67%30.03 "Hg28 mi
11:00 AM78 °FSunny.2 mph67%30.04 "Hg19 mi
10:00 AM74 °FScattered clouds.3 mph73%30.06 "Hg16 mi
9:00 AM71 °FSunny.6 mph80%30.07 "Hg9 mi
8:00 AM70 °FPartly sunny.5 mph82%30.09 "Hg19 mi
7:00 AM70 °FSunny.1 mph81%30.06 "Hg19 mi
6:00 AM69 °FClear.1 mph84%30.06 "Hg19 mi
5:00 AM67 °FClear.2 mph88%30.06 "Hg22 mi
4:00 AM66 °FClear.1 mph91%30.08 "Hg13 mi
3:00 AM70 °FClear.1 mph82%30.09 "Hg22 mi
Weather by CustomWeather, © 2015

See weather overviewHow to use our weather pages